HVDC transfer

From www.emi.ea.govt.nz provided by the Electricity Authority (New Zealand)
Run at: 20240502124517

Parameters
Date range,20 Aug 2019 - 11 Nov 2019
Time scale,Trading period
Show,Average flow (MW)

Period start,Period end,Trading period,Direction,Energy transfer (GWh),Peak flow (MW),Average flow (MW)
20/08/2019 00:00:00,20/08/2019 00:30:00,1,Northward at Haywards,0.012,23,23
20/08/2019 01:00:00,20/08/2019 01:30:00,3,Southward at Benmore,-0.022,-45,-45
20/08/2019 01:30:00,20/08/2019 02:00:00,4,Southward at Benmore,-0.040,-80,-80
20/08/2019 02:00:00,20/08/2019 02:30:00,5,Southward at Benmore,-0.032,-64,-64
20/08/2019 02:30:00,20/08/2019 03:00:00,6,Southward at Benmore,-0.037,-75,-75
20/08/2019 03:00:00,20/08/2019 03:30:00,7,Southward at Benmore,-0.043,-87,-87
20/08/2019 03:30:00,20/08/2019 04:00:00,8,Southward at Benmore,-0.057,-114,-114
20/08/2019 04:00:00,20/08/2019 04:30:00,9,Southward at Benmore,-0.045,-91,-91
20/08/2019 04:30:00,20/08/2019 05:00:00,10,Southward at Benmore,-0.035,-70,-70
20/08/2019 05:00:00,20/08/2019 05:30:00,11,Northward at Haywards,0.035,69,69
20/08/2019 05:30:00,20/08/2019 06:00:00,12,Northward at Haywards,0.042,83,83
20/08/2019 06:00:00,20/08/2019 06:30:00,13,Northward at Haywards,0.107,213,213
20/08/2019 06:30:00,20/08/2019 07:00:00,14,Northward at Haywards,0.201,402,402
20/08/2019 07:00:00,20/08/2019 07:30:00,15,Northward at Haywards,0.303,606,606
20/08/2019 07:30:00,20/08/2019 08:00:00,16,Northward at Haywards,0.348,696,696
20/08/2019 08:00:00,20/08/2019 08:30:00,17,Northward at Haywards,0.315,629,629
20/08/2019 08:30:00,20/08/2019 09:00:00,18,Northward at Haywards,0.322,643,643
20/08/2019 09:00:00,20/08/2019 09:30:00,19,Northward at Haywards,0.292,583,583
20/08/2019 09:30:00,20/08/2019 10:00:00,20,Northward at Haywards,0.268,536,536
20/08/2019 10:00:00,20/08/2019 10:30:00,21,Northward at Haywards,0.260,519,519
20/08/2019 10:30:00,20/08/2019 11:00:00,22,Northward at Haywards,0.231,461,461
20/08/2019 11:00:00,20/08/2019 11:30:00,23,Northward at Haywards,0.199,398,398
20/08/2019 11:30:00,20/08/2019 12:00:00,24,Northward at Haywards,0.195,389,389
20/08/2019 12:00:00,20/08/2019 12:30:00,25,Northward at Haywards,0.193,385,385
20/08/2019 12:30:00,20/08/2019 13:00:00,26,Northward at Haywards,0.186,372,372
20/08/2019 13:00:00,20/08/2019 13:30:00,27,Northward at Haywards,0.181,361,361
20/08/2019 13:30:00,20/08/2019 14:00:00,28,Northward at Haywards,0.183,365,365
20/08/2019 14:00:00,20/08/2019 14:30:00,29,Northward at Haywards,0.183,366,366
20/08/2019 14:30:00,20/08/2019 15:00:00,30,Northward at Haywards,0.178,356,356
20/08/2019 15:00:00,20/08/2019 15:30:00,31,Northward at Haywards,0.187,374,374
20/08/2019 15:30:00,20/08/2019 16:00:00,32,Northward at Haywards,0.183,366,366
20/08/2019 16:00:00,20/08/2019 16:30:00,33,Northward at Haywards,0.228,456,456
20/08/2019 16:30:00,20/08/2019 17:00:00,34,Northward at Haywards,0.284,568,568
20/08/2019 17:00:00,20/08/2019 17:30:00,35,Northward at Haywards,0.313,625,625
20/08/2019 17:30:00,20/08/2019 18:00:00,36,Northward at Haywards,0.368,735,735
20/08/2019 18:00:00,20/08/2019 18:30:00,37,Northward at Haywards,0.356,711,711
20/08/2019 18:30:00,20/08/2019 19:00:00,38,Northward at Haywards,0.340,680,680
20/08/2019 19:00:00,20/08/2019 19:30:00,39,Northward at Haywards,0.331,661,661
20/08/2019 19:30:00,20/08/2019 20:00:00,40,Northward at Haywards,0.314,628,628
20/08/2019 20:00:00,20/08/2019 20:30:00,41,Northward at Haywards,0.310,620,620
20/08/2019 20:30:00,20/08/2019 21:00:00,42,Northward at Haywards,0.289,577,577
20/08/2019 21:00:00,20/08/2019 21:30:00,43,Northward at Haywards,0.222,443,443
20/08/2019 21:30:00,20/08/2019 22:00:00,44,Northward at Haywards,0.176,352,352
20/08/2019 22:00:00,20/08/2019 22:30:00,45,Northward at Haywards,0.153,306,306
20/08/2019 22:30:00,20/08/2019 23:00:00,46,Northward at Haywards,0.111,222,222
20/08/2019 23:00:00,20/08/2019 23:30:00,47,Northward at Haywards,0.079,157,157
20/08/2019 23:30:00,21/08/2019 00:00:00,48,Northward at Haywards,0.054,107,107
21/08/2019 00:00:00,21/08/2019 00:30:00,1,Northward at Haywards,0.065,129,129
21/08/2019 00:30:00,21/08/2019 01:00:00,2,Northward at Haywards,0.051,101,101
21/08/2019 01:00:00,21/08/2019 01:30:00,3,Northward at Haywards,0.023,46,46
21/08/2019 01:30:00,21/08/2019 02:00:00,4,Northward at Haywards,0.006,12,12
21/08/2019 02:00:00,21/08/2019 02:30:00,5,Northward at Haywards,0.006,11,11
21/08/2019 02:30:00,21/08/2019 03:00:00,6,Southward at Benmore,-0.009,-18,-18
21/08/2019 03:00:00,21/08/2019 03:30:00,7,Southward at Benmore,-0.003,-6,-6
21/08/2019 03:30:00,21/08/2019 04:00:00,8,Northward at Haywards,0.003,5,5
21/08/2019 04:00:00,21/08/2019 04:30:00,9,Southward at Benmore,-0.003,-6,-6
21/08/2019 04:30:00,21/08/2019 05:00:00,10,Northward at Haywards,0.007,14,14
21/08/2019 05:00:00,21/08/2019 05:30:00,11,Northward at Haywards,0.050,99,99
21/08/2019 05:30:00,21/08/2019 06:00:00,12,Northward at Haywards,0.102,203,203
21/08/2019 06:00:00,21/08/2019 06:30:00,13,Northward at Haywards,0.199,397,397
21/08/2019 06:30:00,21/08/2019 07:00:00,14,Northward at Haywards,0.293,585,585
21/08/2019 07:00:00,21/08/2019 07:30:00,15,Northward at Haywards,0.329,657,657
21/08/2019 07:30:00,21/08/2019 08:00:00,16,Northward at Haywards,0.365,730,730
21/08/2019 08:00:00,21/08/2019 08:30:00,17,Northward at Haywards,0.362,723,723
21/08/2019 08:30:00,21/08/2019 09:00:00,18,Northward at Haywards,0.363,725,725
21/08/2019 09:00:00,21/08/2019 09:30:00,19,Northward at Haywards,0.335,669,669
21/08/2019 09:30:00,21/08/2019 10:00:00,20,Northward at Haywards,0.288,576,576
21/08/2019 10:00:00,21/08/2019 10:30:00,21,Northward at Haywards,0.288,575,575
21/08/2019 10:30:00,21/08/2019 11:00:00,22,Northward at Haywards,0.292,584,584
21/08/2019 11:00:00,21/08/2019 11:30:00,23,Northward at Haywards,0.293,586,586
21/08/2019 11:30:00,21/08/2019 12:00:00,24,Northward at Haywards,0.273,546,546
21/08/2019 12:00:00,21/08/2019 12:30:00,25,Northward at Haywards,0.277,553,553
21/08/2019 12:30:00,21/08/2019 13:00:00,26,Northward at Haywards,0.264,528,528
21/08/2019 13:00:00,21/08/2019 13:30:00,27,Northward at Haywards,0.252,503,503
21/08/2019 13:30:00,21/08/2019 14:00:00,28,Northward at Haywards,0.257,513,513
21/08/2019 14:00:00,21/08/2019 14:30:00,29,Northward at Haywards,0.251,501,501
21/08/2019 14:30:00,21/08/2019 15:00:00,30,Northward at Haywards,0.233,466,466
21/08/2019 15:00:00,21/08/2019 15:30:00,31,Northward at Haywards,0.242,483,483
21/08/2019 15:30:00,21/08/2019 16:00:00,32,Northward at Haywards,0.234,467,467
21/08/2019 16:00:00,21/08/2019 16:30:00,33,Northward at Haywards,0.234,468,468
21/08/2019 16:30:00,21/08/2019 17:00:00,34,Northward at Haywards,0.245,490,490
21/08/2019 17:00:00,21/08/2019 17:30:00,35,Northward at Haywards,0.284,567,567
21/08/2019 17:30:00,21/08/2019 18:00:00,36,Northward at Haywards,0.325,649,649
21/08/2019 18:00:00,21/08/2019 18:30:00,37,Northward at Haywards,0.329,657,657
21/08/2019 18:30:00,21/08/2019 19:00:00,38,Northward at Haywards,0.340,680,680
21/08/2019 19:00:00,21/08/2019 19:30:00,39,Northward at Haywards,0.314,627,627
21/08/2019 19:30:00,21/08/2019 20:00:00,40,Northward at Haywards,0.263,525,525
21/08/2019 20:00:00,21/08/2019 20:30:00,41,Northward at Haywards,0.229,457,457
21/08/2019 20:30:00,21/08/2019 21:00:00,42,Northward at Haywards,0.218,436,436
21/08/2019 21:00:00,21/08/2019 21:30:00,43,Northward at Haywards,0.175,350,350
21/08/2019 21:30:00,21/08/2019 22:00:00,44,Northward at Haywards,0.141,281,281
21/08/2019 22:00:00,21/08/2019 22:30:00,45,Northward at Haywards,0.085,169,169
21/08/2019 22:30:00,21/08/2019 23:00:00,46,Northward at Haywards,0.052,103,103
21/08/2019 23:00:00,21/08/2019 23:30:00,47,Northward at Haywards,0.011,21,21
21/08/2019 23:30:00,22/08/2019 00:00:00,48,Southward at Benmore,-0.026,-52,-52
22/08/2019 00:00:00,22/08/2019 00:30:00,1,Southward at Benmore,-0.037,-75,-75
22/08/2019 00:30:00,22/08/2019 01:00:00,2,Southward at Benmore,-0.042,-84,-84
22/08/2019 01:00:00,22/08/2019 01:30:00,3,Southward at Benmore,-0.060,-120,-120
22/08/2019 01:30:00,22/08/2019 02:00:00,4,Southward at Benmore,-0.064,-128,-128
22/08/2019 02:00:00,22/08/2019 02:30:00,5,Southward at Benmore,-0.063,-127,-127
22/08/2019 02:30:00,22/08/2019 03:00:00,6,Southward at Benmore,-0.066,-132,-132
22/08/2019 03:00:00,22/08/2019 03:30:00,7,Southward at Benmore,-0.081,-162,-162
22/08/2019 03:30:00,22/08/2019 04:00:00,8,Southward at Benmore,-0.074,-148,-148
22/08/2019 04:00:00,22/08/2019 04:30:00,9,Southward at Benmore,-0.068,-136,-136
22/08/2019 04:30:00,22/08/2019 05:00:00,10,Southward at Benmore,-0.074,-148,-148
22/08/2019 05:00:00,22/08/2019 05:30:00,11,Southward at Benmore,-0.021,-43,-43
22/08/2019 05:30:00,22/08/2019 06:00:00,12,Northward at Haywards,0.007,14,14
22/08/2019 06:00:00,22/08/2019 06:30:00,13,Northward at Haywards,0.097,193,193
22/08/2019 06:30:00,22/08/2019 07:00:00,14,Northward at Haywards,0.140,280,280
22/08/2019 07:00:00,22/08/2019 07:30:00,15,Northward at Haywards,0.183,366,366
22/08/2019 07:30:00,22/08/2019 08:00:00,16,Northward at Haywards,0.203,405,405
22/08/2019 08:00:00,22/08/2019 08:30:00,17,Northward at Haywards,0.204,407,407
22/08/2019 08:30:00,22/08/2019 09:00:00,18,Northward at Haywards,0.170,339,339
22/08/2019 09:00:00,22/08/2019 09:30:00,19,Northward at Haywards,0.160,320,320
22/08/2019 09:30:00,22/08/2019 10:00:00,20,Northward at Haywards,0.124,247,247
22/08/2019 10:00:00,22/08/2019 10:30:00,21,Northward at Haywards,0.115,229,229
22/08/2019 10:30:00,22/08/2019 11:00:00,22,Northward at Haywards,0.116,231,231
22/08/2019 11:00:00,22/08/2019 11:30:00,23,Northward at Haywards,0.111,222,222
22/08/2019 11:30:00,22/08/2019 12:00:00,24,Northward at Haywards,0.106,211,211
22/08/2019 12:00:00,22/08/2019 12:30:00,25,Northward at Haywards,0.128,256,256
22/08/2019 12:30:00,22/08/2019 13:00:00,26,Northward at Haywards,0.128,255,255
22/08/2019 13:00:00,22/08/2019 13:30:00,27,Northward at Haywards,0.115,229,229
22/08/2019 13:30:00,22/08/2019 14:00:00,28,Northward at Haywards,0.132,263,263
22/08/2019 14:00:00,22/08/2019 14:30:00,29,Northward at Haywards,0.119,238,238
22/08/2019 14:30:00,22/08/2019 15:00:00,30,Northward at Haywards,0.114,228,228
22/08/2019 15:00:00,22/08/2019 15:30:00,31,Northward at Haywards,0.116,231,231
22/08/2019 15:30:00,22/08/2019 16:00:00,32,Northward at Haywards,0.152,303,303
22/08/2019 16:00:00,22/08/2019 16:30:00,33,Northward at Haywards,0.204,407,407
22/08/2019 16:30:00,22/08/2019 17:00:00,34,Northward at Haywards,0.214,427,427
22/08/2019 17:00:00,22/08/2019 17:30:00,35,Northward at Haywards,0.243,485,485
22/08/2019 17:30:00,22/08/2019 18:00:00,36,Northward at Haywards,0.279,558,558
22/08/2019 18:00:00,22/08/2019 18:30:00,37,Northward at Haywards,0.273,545,545
22/08/2019 18:30:00,22/08/2019 19:00:00,38,Northward at Haywards,0.247,494,494
22/08/2019 19:00:00,22/08/2019 19:30:00,39,Northward at Haywards,0.242,483,483
22/08/2019 19:30:00,22/08/2019 20:00:00,40,Northward at Haywards,0.223,445,445
22/08/2019 20:00:00,22/08/2019 20:30:00,41,Northward at Haywards,0.218,436,436
22/08/2019 20:30:00,22/08/2019 21:00:00,42,Northward at Haywards,0.195,389,389
22/08/2019 21:00:00,22/08/2019 21:30:00,43,Northward at Haywards,0.140,279,279
22/08/2019 21:30:00,22/08/2019 22:00:00,44,Northward at Haywards,0.129,258,258
22/08/2019 22:00:00,22/08/2019 22:30:00,45,Northward at Haywards,0.085,170,170
22/08/2019 22:30:00,22/08/2019 23:00:00,46,Northward at Haywards,0.041,82,82
22/08/2019 23:00:00,22/08/2019 23:30:00,47,Northward at Haywards,0.017,33,33
22/08/2019 23:30:00,23/08/2019 00:00:00,48,Southward at Benmore,-0.014,-29,-29
23/08/2019 00:00:00,23/08/2019 00:30:00,1,Northward at Haywards,0.017,33,33
23/08/2019 00:30:00,23/08/2019 01:00:00,2,Southward at Benmore,-0.014,-28,-28
23/08/2019 01:00:00,23/08/2019 01:30:00,3,Southward at Benmore,-0.019,-38,-38
23/08/2019 01:30:00,23/08/2019 02:00:00,4,Southward at Benmore,-0.012,-25,-25
23/08/2019 02:00:00,23/08/2019 02:30:00,5,Southward at Benmore,-0.005,-11,-11
23/08/2019 02:30:00,23/08/2019 03:00:00,6,Northward at Haywards,0.007,13,13
23/08/2019 03:00:00,23/08/2019 03:30:00,7,Northward at Haywards,0.008,16,16
23/08/2019 03:30:00,23/08/2019 04:00:00,8,Northward at Haywards,0.015,30,30
23/08/2019 04:00:00,23/08/2019 04:30:00,9,Northward at Haywards,0.014,27,27
23/08/2019 04:30:00,23/08/2019 05:00:00,10,Northward at Haywards,0.013,26,26
23/08/2019 05:00:00,23/08/2019 05:30:00,11,Northward at Haywards,0.056,111,111
23/08/2019 05:30:00,23/08/2019 06:00:00,12,Northward at Haywards,0.067,134,134
23/08/2019 06:00:00,23/08/2019 06:30:00,13,Northward at Haywards,0.110,219,219
23/08/2019 06:30:00,23/08/2019 07:00:00,14,Northward at Haywards,0.148,295,295
23/08/2019 07:00:00,23/08/2019 07:30:00,15,Northward at Haywards,0.207,413,413
23/08/2019 07:30:00,23/08/2019 08:00:00,16,Northward at Haywards,0.232,463,463
23/08/2019 08:00:00,23/08/2019 08:30:00,17,Northward at Haywards,0.256,512,512
23/08/2019 08:30:00,23/08/2019 09:00:00,18,Northward at Haywards,0.243,486,486
23/08/2019 09:00:00,23/08/2019 09:30:00,19,Northward at Haywards,0.240,480,480
23/08/2019 09:30:00,23/08/2019 10:00:00,20,Northward at Haywards,0.250,500,500
23/08/2019 10:00:00,23/08/2019 10:30:00,21,Northward at Haywards,0.257,513,513
23/08/2019 10:30:00,23/08/2019 11:00:00,22,Northward at Haywards,0.259,517,517
23/08/2019 11:00:00,23/08/2019 11:30:00,23,Northward at Haywards,0.284,568,568
23/08/2019 11:30:00,23/08/2019 12:00:00,24,Northward at Haywards,0.292,583,583
23/08/2019 12:00:00,23/08/2019 12:30:00,25,Northward at Haywards,0.281,561,561
23/08/2019 12:30:00,23/08/2019 13:00:00,26,Northward at Haywards,0.275,550,550
23/08/2019 13:00:00,23/08/2019 13:30:00,27,Northward at Haywards,0.268,536,536
23/08/2019 13:30:00,23/08/2019 14:00:00,28,Northward at Haywards,0.281,562,562
23/08/2019 14:00:00,23/08/2019 14:30:00,29,Northward at Haywards,0.286,572,572
23/08/2019 14:30:00,23/08/2019 15:00:00,30,Northward at Haywards,0.290,580,580
23/08/2019 15:00:00,23/08/2019 15:30:00,31,Northward at Haywards,0.299,597,597
23/08/2019 15:30:00,23/08/2019 16:00:00,32,Northward at Haywards,0.300,600,600
23/08/2019 16:00:00,23/08/2019 16:30:00,33,Northward at Haywards,0.304,608,608
23/08/2019 16:30:00,23/08/2019 17:00:00,34,Northward at Haywards,0.316,631,631
23/08/2019 17:00:00,23/08/2019 17:30:00,35,Northward at Haywards,0.342,684,684
23/08/2019 17:30:00,23/08/2019 18:00:00,36,Northward at Haywards,0.378,756,756
23/08/2019 18:00:00,23/08/2019 18:30:00,37,Northward at Haywards,0.370,740,740
23/08/2019 18:30:00,23/08/2019 19:00:00,38,Northward at Haywards,0.357,713,713
23/08/2019 19:00:00,23/08/2019 19:30:00,39,Northward at Haywards,0.358,716,716
23/08/2019 19:30:00,23/08/2019 20:00:00,40,Northward at Haywards,0.357,714,714
23/08/2019 20:00:00,23/08/2019 20:30:00,41,Northward at Haywards,0.339,677,677
23/08/2019 20:30:00,23/08/2019 21:00:00,42,Northward at Haywards,0.304,607,607
23/08/2019 21:00:00,23/08/2019 21:30:00,43,Northward at Haywards,0.275,550,550
23/08/2019 21:30:00,23/08/2019 22:00:00,44,Northward at Haywards,0.263,526,526
23/08/2019 22:00:00,23/08/2019 22:30:00,45,Northward at Haywards,0.165,329,329
23/08/2019 22:30:00,23/08/2019 23:00:00,46,Northward at Haywards,0.116,231,231
23/08/2019 23:00:00,23/08/2019 23:30:00,47,Northward at Haywards,0.081,162,162
23/08/2019 23:30:00,24/08/2019 00:00:00,48,Northward at Haywards,0.049,97,97
24/08/2019 00:00:00,24/08/2019 00:30:00,1,Northward at Haywards,0.028,55,55
24/08/2019 00:30:00,24/08/2019 01:00:00,2,Southward at Benmore,-0.007,-14,-14
24/08/2019 01:00:00,24/08/2019 01:30:00,3,Southward at Benmore,-0.061,-122,-122
24/08/2019 01:30:00,24/08/2019 02:00:00,4,Southward at Benmore,-0.036,-73,-73
24/08/2019 02:00:00,24/08/2019 02:30:00,5,Southward at Benmore,-0.050,-101,-101
24/08/2019 02:30:00,24/08/2019 03:00:00,6,Southward at Benmore,-0.045,-90,-90
24/08/2019 03:00:00,24/08/2019 03:30:00,7,Southward at Benmore,-0.042,-84,-84
24/08/2019 03:30:00,24/08/2019 04:00:00,8,Southward at Benmore,-0.041,-82,-82
24/08/2019 04:00:00,24/08/2019 04:30:00,9,Southward at Benmore,-0.041,-83,-83
24/08/2019 04:30:00,24/08/2019 05:00:00,10,Southward at Benmore,-0.040,-81,-81
24/08/2019 05:00:00,24/08/2019 05:30:00,11,Southward at Benmore,-0.025,-51,-51
24/08/2019 05:30:00,24/08/2019 06:00:00,12,Southward at Benmore,-0.020,-41,-41
24/08/2019 06:00:00,24/08/2019 06:30:00,13,Northward at Haywards,0.017,34,34
24/08/2019 06:30:00,24/08/2019 07:00:00,14,Northward at Haywards,0.027,53,53
24/08/2019 07:00:00,24/08/2019 07:30:00,15,Northward at Haywards,0.071,141,141
24/08/2019 07:30:00,24/08/2019 08:00:00,16,Northward at Haywards,0.090,179,179
24/08/2019 08:00:00,24/08/2019 08:30:00,17,Northward at Haywards,0.120,239,239
24/08/2019 08:30:00,24/08/2019 09:00:00,18,Northward at Haywards,0.096,191,191
24/08/2019 09:00:00,24/08/2019 09:30:00,19,Northward at Haywards,0.099,198,198
24/08/2019 09:30:00,24/08/2019 10:00:00,20,Northward at Haywards,0.126,251,251
24/08/2019 10:00:00,24/08/2019 10:30:00,21,Northward at Haywards,0.114,228,228
24/08/2019 10:30:00,24/08/2019 11:00:00,22,Northward at Haywards,0.127,254,254
24/08/2019 11:00:00,24/08/2019 11:30:00,23,Northward at Haywards,0.142,284,284
24/08/2019 11:30:00,24/08/2019 12:00:00,24,Northward at Haywards,0.134,268,268
24/08/2019 12:00:00,24/08/2019 12:30:00,25,Northward at Haywards,0.206,411,411
24/08/2019 12:30:00,24/08/2019 13:00:00,26,Northward at Haywards,0.197,394,394
24/08/2019 13:00:00,24/08/2019 13:30:00,27,Northward at Haywards,0.201,401,401
24/08/2019 13:30:00,24/08/2019 14:00:00,28,Northward at Haywards,0.195,390,390
24/08/2019 14:00:00,24/08/2019 14:30:00,29,Northward at Haywards,0.197,393,393
24/08/2019 14:30:00,24/08/2019 15:00:00,30,Northward at Haywards,0.182,364,364
24/08/2019 15:00:00,24/08/2019 15:30:00,31,Northward at Haywards,0.186,371,371
24/08/2019 15:30:00,24/08/2019 16:00:00,32,Northward at Haywards,0.167,334,334
24/08/2019 16:00:00,24/08/2019 16:30:00,33,Northward at Haywards,0.196,391,391
24/08/2019 16:30:00,24/08/2019 17:00:00,34,Northward at Haywards,0.182,364,364
24/08/2019 17:00:00,24/08/2019 17:30:00,35,Northward at Haywards,0.183,366,366
24/08/2019 17:30:00,24/08/2019 18:00:00,36,Northward at Haywards,0.235,469,469
24/08/2019 18:00:00,24/08/2019 18:30:00,37,Northward at Haywards,0.230,459,459
24/08/2019 18:30:00,24/08/2019 19:00:00,38,Northward at Haywards,0.239,477,477
24/08/2019 19:00:00,24/08/2019 19:30:00,39,Northward at Haywards,0.199,397,397
24/08/2019 19:30:00,24/08/2019 20:00:00,40,Northward at Haywards,0.174,347,347
24/08/2019 20:00:00,24/08/2019 20:30:00,41,Northward at Haywards,0.165,330,330
24/08/2019 20:30:00,24/08/2019 21:00:00,42,Northward at Haywards,0.155,309,309
24/08/2019 21:00:00,24/08/2019 21:30:00,43,Northward at Haywards,0.135,269,269
24/08/2019 21:30:00,24/08/2019 22:00:00,44,Northward at Haywards,0.129,257,257
24/08/2019 22:00:00,24/08/2019 22:30:00,45,Northward at Haywards,0.073,145,145
24/08/2019 22:30:00,24/08/2019 23:00:00,46,Northward at Haywards,0.050,100,100
24/08/2019 23:00:00,24/08/2019 23:30:00,47,Northward at Haywards,0.042,83,83
24/08/2019 23:30:00,25/08/2019 00:00:00,48,Northward at Haywards,0.021,42,42
25/08/2019 00:00:00,25/08/2019 00:30:00,1,Northward at Haywards,0.024,48,48
25/08/2019 00:30:00,25/08/2019 01:00:00,2,Southward at Benmore,-0.026,-53,-53
25/08/2019 01:00:00,25/08/2019 01:30:00,3,Southward at Benmore,-0.062,-125,-125
25/08/2019 01:30:00,25/08/2019 02:00:00,4,Southward at Benmore,-0.058,-116,-116
25/08/2019 02:00:00,25/08/2019 02:30:00,5,Southward at Benmore,-0.056,-113,-113
25/08/2019 02:30:00,25/08/2019 03:00:00,6,Southward at Benmore,-0.047,-94,-94
25/08/2019 03:00:00,25/08/2019 03:30:00,7,Southward at Benmore,-0.043,-86,-86
25/08/2019 03:30:00,25/08/2019 04:00:00,8,Southward at Benmore,-0.041,-83,-83
25/08/2019 04:00:00,25/08/2019 04:30:00,9,Southward at Benmore,-0.038,-77,-77
25/08/2019 04:30:00,25/08/2019 05:00:00,10,Southward at Benmore,-0.053,-107,-107
25/08/2019 05:00:00,25/08/2019 05:30:00,11,Southward at Benmore,-0.007,-15,-15
25/08/2019 05:30:00,25/08/2019 06:00:00,12,Southward at Benmore,-0.024,-48,-48
25/08/2019 06:00:00,25/08/2019 06:30:00,13,Southward at Benmore,-0.030,-60,-60
25/08/2019 06:30:00,25/08/2019 07:00:00,14,Southward at Benmore,-0.021,-43,-43
25/08/2019 07:00:00,25/08/2019 07:30:00,15,Northward at Haywards,0.027,54,54
25/08/2019 07:30:00,25/08/2019 08:00:00,16,Northward at Haywards,0.073,146,146
25/08/2019 08:00:00,25/08/2019 08:30:00,17,Northward at Haywards,0.073,145,145
25/08/2019 08:30:00,25/08/2019 09:00:00,18,Northward at Haywards,0.097,194,194
25/08/2019 09:00:00,25/08/2019 09:30:00,19,Northward at Haywards,0.133,266,266
25/08/2019 09:30:00,25/08/2019 10:00:00,20,Northward at Haywards,0.123,245,245
25/08/2019 10:00:00,25/08/2019 10:30:00,21,Northward at Haywards,0.123,246,246
25/08/2019 10:30:00,25/08/2019 11:00:00,22,Northward at Haywards,0.133,265,265
25/08/2019 11:00:00,25/08/2019 11:30:00,23,Northward at Haywards,0.132,263,263
25/08/2019 11:30:00,25/08/2019 12:00:00,24,Northward at Haywards,0.128,256,256
25/08/2019 12:00:00,25/08/2019 12:30:00,25,Northward at Haywards,0.110,220,220
25/08/2019 12:30:00,25/08/2019 13:00:00,26,Northward at Haywards,0.106,211,211
25/08/2019 13:00:00,25/08/2019 13:30:00,27,Northward at Haywards,0.109,217,217
25/08/2019 13:30:00,25/08/2019 14:00:00,28,Northward at Haywards,0.108,216,216
25/08/2019 14:00:00,25/08/2019 14:30:00,29,Northward at Haywards,0.115,229,229
25/08/2019 14:30:00,25/08/2019 15:00:00,30,Northward at Haywards,0.104,208,208
25/08/2019 15:00:00,25/08/2019 15:30:00,31,Northward at Haywards,0.081,161,161
25/08/2019 15:30:00,25/08/2019 16:00:00,32,Northward at Haywards,0.060,120,120
25/08/2019 16:00:00,25/08/2019 16:30:00,33,Northward at Haywards,0.063,125,125
25/08/2019 16:30:00,25/08/2019 17:00:00,34,Northward at Haywards,0.065,129,129
25/08/2019 17:00:00,25/08/2019 17:30:00,35,Northward at Haywards,0.101,201,201
25/08/2019 17:30:00,25/08/2019 18:00:00,36,Northward at Haywards,0.131,261,261
25/08/2019 18:00:00,25/08/2019 18:30:00,37,Northward at Haywards,0.159,318,318
25/08/2019 18:30:00,25/08/2019 19:00:00,38,Northward at Haywards,0.173,346,346
25/08/2019 19:00:00,25/08/2019 19:30:00,39,Northward at Haywards,0.159,318,318
25/08/2019 19:30:00,25/08/2019 20:00:00,40,Northward at Haywards,0.120,240,240
25/08/2019 20:00:00,25/08/2019 20:30:00,41,Northward at Haywards,0.106,211,211
25/08/2019 20:30:00,25/08/2019 21:00:00,42,Northward at Haywards,0.099,197,197
25/08/2019 21:00:00,25/08/2019 21:30:00,43,Northward at Haywards,0.076,151,151
25/08/2019 21:30:00,25/08/2019 22:00:00,44,Northward at Haywards,0.055,109,109
25/08/2019 22:00:00,25/08/2019 22:30:00,45,Northward at Haywards,0.002,3,3
25/08/2019 22:30:00,25/08/2019 23:00:00,46,Southward at Benmore,-0.032,-65,-65
25/08/2019 23:00:00,25/08/2019 23:30:00,47,Southward at Benmore,-0.038,-77,-77
25/08/2019 23:30:00,26/08/2019 00:00:00,48,Southward at Benmore,-0.042,-84,-84
26/08/2019 00:00:00,26/08/2019 00:30:00,1,Southward at Benmore,-0.037,-74,-74
26/08/2019 00:30:00,26/08/2019 01:00:00,2,Southward at Benmore,-0.092,-185,-185
26/08/2019 01:00:00,26/08/2019 01:30:00,3,Southward at Benmore,-0.100,-200,-200
26/08/2019 01:30:00,26/08/2019 02:00:00,4,Southward at Benmore,-0.100,-200,-200
26/08/2019 02:00:00,26/08/2019 02:30:00,5,Southward at Benmore,-0.090,-180,-180
26/08/2019 02:30:00,26/08/2019 03:00:00,6,Southward at Benmore,-0.090,-181,-181
26/08/2019 03:00:00,26/08/2019 03:30:00,7,Southward at Benmore,-0.095,-191,-191
26/08/2019 03:30:00,26/08/2019 04:00:00,8,Southward at Benmore,-0.090,-180,-180
26/08/2019 04:00:00,26/08/2019 04:30:00,9,Southward at Benmore,-0.092,-185,-185